Birmingham, AL

7:10 PM CST on December 07, 2016 (GMT -0600)
Birmingham International

Weather History for KBHM - June, 2013

Change the Weather History Date:

Wednesday, June 26, 2013

  Actual Average Record
Temperature  
Mean Temperature 83 °F 80 °F  
Max Temperature 91 °F 90 °F 100 °F (1930)
Min Temperature 75 °F 70 °F 50 °F (1974)
Cooling Degree Days 18 15  
Month to date cooling degree days 357 323  
Year to date cooling degree days 622 605  
Since 1 June cooling degree days 357 323  
Growing Degree Days 32 (Base 50)    
Moisture  
Dew Point 70 °F    
Average Humidity 69    
Maximum Humidity 87    
Minimum Humidity 50    
Precipitation  
Precipitation 0.00 in 0.16 in 1.68 in (2001)
Month to date precipitation 8.59 3.75  
Year to date precipitation 39.10 27.72  
Sea Level Pressure  
Sea Level Pressure 30.01 in    
Wind  
Wind Speed 8 mph (SW)    
Max Wind Speed 15 mph    
Max Gust Speed 20 mph    
Visibility 10 miles    
Events      
T = Trace of Precipitation, MM = Missing Value Source: NWS Daily Summary

Daily Weather History Graph

Daily Weather History Graph

Search for Another Location

Airport or City:

Trip Planner

Search our weather history database for the weather conditions in past years. The results will help you decide how hot, cold, wet, or windy it might be!

Date:

Astronomy

Jun. 26, 2013 Rise Set
Actual Time 5:38 AM CDT 8:01 PM CDT
Civil Twilight 5:09 AM CDT 8:29 PM CDT
Nautical Twilight 4:34 AM CDT 9:05 PM CDT
Astronomical Twilight 3:55 AM CDT 9:44 PM CDT
Moon 10:37 PM CDT (6/26) 9:18 AM CDT (6/26)
Length of Visible Light 15h 20m
Length of Day
14h 22m
Waning Gibbous, 85% of the Moon is Illuminated
Jun 26
Waning Gibbous
Jun 29
Last Quarter
Jul 8
New
Jul 15
First Quarter
Jul 22
Full

Hourly Weather History & Observations

Time (CDT) Temp. Heat Index Dew Point Humidity Pressure Visibility Wind Dir Wind Speed Gust Speed Precip Events Conditions
12:53 AM 77.0 °F - 71.1 °F 82% 30.03 in 10.0 mi Calm Calm - N/A   Clear
1:53 AM 77.0 °F - 70.0 °F 79% 30.02 in 10.0 mi SSW 5.8 mph - N/A   Clear
2:53 AM 77.0 °F - 71.1 °F 82% 30.01 in 10.0 mi SSW 4.6 mph - N/A   Clear
3:53 AM 77.0 °F - 71.1 °F 82% 30.02 in 10.0 mi WSW 3.5 mph - N/A   Clear
4:53 AM 75.9 °F - 72.0 °F 87% 30.04 in 10.0 mi SW 5.8 mph - N/A   Clear
5:53 AM 75.0 °F - 72.0 °F 90% 30.06 in 10.0 mi SSW 4.6 mph - N/A   Clear
6:53 AM 75.9 °F - 71.1 °F 85% 30.07 in 10.0 mi SSW 4.6 mph - N/A   Clear
7:53 AM 79.0 °F - 72.0 °F 79% 30.09 in 10.0 mi SW 5.8 mph - N/A   Partly Cloudy
8:53 AM 81.0 °F 84.9 °F 71.1 °F 72% 30.09 in 10.0 mi WSW 9.2 mph - N/A   Partly Cloudy
9:53 AM 82.9 °F 87.5 °F 71.1 °F 67% 30.08 in 10.0 mi WSW 9.2 mph - N/A   Scattered Clouds
10:53 AM 84.9 °F 90.1 °F 71.1 °F 63% 30.07 in 10.0 mi WSW 6.9 mph - N/A   Scattered Clouds
11:53 AM 87.1 °F 92.8 °F 71.1 °F 59% 30.06 in 10.0 mi WNW 10.4 mph - N/A   Mostly Cloudy
12:53 PM 88.0 °F 92.9 °F 70.0 °F 55% 30.05 in 10.0 mi Variable 6.9 mph - N/A   Scattered Clouds
1:53 PM 88.0 °F 92.9 °F 70.0 °F 55% 30.02 in 10.0 mi SW 9.2 mph - N/A   Scattered Clouds
2:53 PM 89.1 °F 92.9 °F 68.0 °F 50% 29.99 in 10.0 mi WSW 10.4 mph - N/A   Scattered Clouds
3:53 PM 89.1 °F 92.9 °F 68.0 °F 50% 29.97 in 10.0 mi WSW 13.8 mph 19.6 mph N/A   Mostly Cloudy
4:53 PM 89.1 °F 92.9 °F 68.0 °F 50% 29.96 in 10.0 mi West 11.5 mph 17.3 mph N/A   Scattered Clouds
5:53 PM 90.0 °F 94.5 °F 69.1 °F 50% 29.95 in 10.0 mi SW 9.2 mph - N/A   Scattered Clouds
6:53 PM 88.0 °F 91.4 °F 68.0 °F 51% 29.94 in 10.0 mi SW 10.4 mph - N/A   Scattered Clouds
7:53 PM 86.0 °F 90.1 °F 69.1 °F 57% 29.95 in 10.0 mi SW 11.5 mph - N/A   Partly Cloudy
8:53 PM 84.9 °F 88.8 °F 69.1 °F 59% 29.95 in 10.0 mi SW 9.2 mph - N/A   Clear
9:53 PM 82.0 °F 85.9 °F 70.0 °F 67% 29.96 in 10.0 mi SSW 8.1 mph - N/A   Clear
10:53 PM 82.0 °F 85.9 °F 70.0 °F 67% 29.96 in 10.0 mi SSW 6.9 mph - N/A   Clear
11:53 PM 82.0 °F 85.9 °F 70.0 °F 67% 29.99 in 10.0 mi SSW 4.6 mph - N/A   Clear